Weatherford, Texas, United States (76085)
Lat: 32.76N, Lon: 97.8W
Wx Zone: TXZ117
Local Info
Past Weather Observations for Yesterday

NOTE: This archive is for the closest National Weather Service station to Weatherford. Information may differ from the station used for current weather conditions.

Click here for Long-term Archive

Time Weather Temperature Dewpoint Humidity Pressure Winds Precip Visibility
23:53
Clear
N/A N/A N/A 29.68 in
(1005 mb)
S 3.5 mph
(S 6 kph)
- 10SM
22:53
Partly Cloudy
N/A N/A N/A 29.68 in
(1005 mb)
SE 4.6 mph
(SE 7 kph)
- 10SM
21:53
Partly Cloudy
N/A N/A N/A 29.68 in
(1005 mb)
SE 11.5 mph
(SE 19 kph)
0.00 in
(0.00 mm)
10SM
21:26
Mostly Cloudy
N/A N/A N/A 29.71 in
(1006 mb)
SE 11.5 mph
(SE 19 kph)
0.00 in
(0.00 mm)
10SM
21:10
Mostly Cloudy
Light Rain
N/A N/A N/A 29.71 in
(1006 mb)
SE 19.6 mph
(SE 32 kph)
0.00 in
(0.00 mm)
10SM
20:53
Mostly Cloudy
Unknown Precip
N/A N/A N/A 29.74 in
(1007 mb)
SE 17.3 mph
(SE 28 kph)
0.00 in
(0.00 mm)
10SM
20:45
Overcast
N/A N/A N/A 29.74 in
(1007 mb)
SSE 16.1 mph
(SSE 26 kph)
0.00 in
(0.00 mm)
10SM
20:32
Overcast
Light Rain
N/A N/A N/A 29.77 in
(1008 mb)
SE 16.1 mph
(SE 26 kph)
0.00 in
(0.00 mm)
10SM
19:53
Overcast
Light Rain
N/A N/A N/A 29.8 in
(1009 mb)
SSE 17.3 mph
(SSE 28 kph)
0.02 in
(0.51 mm)
10SM
18:53
Overcast
Light Rain
N/A N/A N/A 29.8 in
(1009 mb)
E 10.4 mph
(E 17 kph)
0.10 in
(2.54 mm)
10SM
17:53
Overcast
Light Rain
N/A N/A N/A 29.86 in
(1011 mb)
N 9.2 mph
(N 15 kph)
0.18 in
(4.57 mm)
4SM
17:40
Overcast
Rain
N/A N/A N/A 29.83 in
(1010 mb)
N 11.5 mph
(N 19 kph)
0.16 in
(4.06 mm)
2 1/2SM
17:21
Overcast
Rain
N/A N/A N/A 29.89 in
(1012 mb)
N 8.1 mph
(N 13 kph)
0.08 in
(2.03 mm)
3SM
17:14
Overcast
Rain
N/A N/A N/A 29.89 in
(1012 mb)
N 10.4 mph
(N 17 kph)
0.06 in
(1.52 mm)
2 1/2SM
16:53
Overcast
Rain
N/A N/A N/A 29.86 in
(1011 mb)
NNW 10.4 mph
(NNW 17 kph)
0.31 in
(7.87 mm)
1SM
16:32
Overcast
Heavy Rain
N/A N/A N/A 29.89 in
(1012 mb)
NW 13.8 mph
(NW 22 kph)
0.15 in
(3.81 mm)
1/2SM
16:25
Overcast
Thunder Storms
N/A N/A N/A 29.89 in
(1012 mb)
NW 26.5 mph
(NW 43 kph)
0.06 in
(1.52 mm)
3/4SM
16:19
Overcast
Thunder Storms
N/A N/A N/A 29.86 in
(1011 mb)
W 5.8 mph
(W 9 kph)
0.01 in
(0.25 mm)
1 1/2SM
16:12
Overcast
Light Rain
N/A N/A N/A 29.83 in
(1010 mb)
Calm 0.00 in
(0.00 mm)
2 1/2SM
16:01
Overcast
Light Rain
N/A N/A N/A 29.8 in
(1009 mb)
ESE 4.6 mph
(ESE 7 kph)
0.00 in
(0.00 mm)
1 1/2SM
15:53
Overcast
Light Rain
N/A N/A N/A 29.8 in
(1009 mb)
SE 8.1 mph
(SE 13 kph)
0.00 in
(0.00 mm)
2SM
15:33
Overcast
Light Rain
N/A N/A N/A 29.8 in
(1009 mb)
SE 8.1 mph
(SE 13 kph)
0.00 in
(0.00 mm)
2 1/2SM
15:02
Overcast
Hazy
N/A N/A N/A 29.8 in
(1009 mb)
SE 8.1 mph
(SE 13 kph)
- 4SM
14:53
Overcast
Fog And Mist
N/A N/A N/A 29.8 in
(1009 mb)
SE 9.2 mph
(SE 15 kph)
0.00 in
(0.00 mm)
3SM
14:22
Overcast
Fog And Mist
N/A N/A N/A 29.8 in
(1009 mb)
E 6.9 mph
(E 11 kph)
0.00 in
(0.00 mm)
3SM
14:14
Overcast
Fog And Mist
N/A N/A N/A 29.8 in
(1009 mb)
E 10.4 mph
(E 17 kph)
0.00 in
(0.00 mm)
2 1/2SM
13:56
Overcast
Light Rain
N/A N/A N/A 29.8 in
(1009 mb)
SE 10.4 mph
(SE 17 kph)
0.00 in
(0.00 mm)
2SM
13:53
Overcast
Light Rain
N/A N/A N/A 29.8 in
(1009 mb)
SE 10.4 mph
(SE 17 kph)
0.04 in
(1.02 mm)
1 3/4SM
13:22
Overcast
Thunder Storms
N/A N/A N/A 29.83 in
(1010 mb)
SE 13.8 mph
(SE 22 kph)
0.01 in
(0.25 mm)
2SM
12:53
Overcast
Thunder Storms
N/A N/A N/A 29.86 in
(1011 mb)
SE 15 mph
(SE 24 kph)
- 2 1/2SM
12:50
Overcast
Thunder Storms
N/A N/A N/A 29.86 in
(1011 mb)
SE 16.1 mph
(SE 26 kph)
- 2 1/2SM
12:45
Overcast
Fog And Mist
N/A N/A N/A 29.86 in
(1011 mb)
SE 16.1 mph
(SE 26 kph)
- 3SM
12:36
Overcast
Fog And Mist
N/A N/A N/A 29.89 in
(1012 mb)
SE 15 mph
(SE 24 kph)
- 2 1/2SM
12:24
Overcast
Fog And Mist
N/A N/A N/A 29.89 in
(1012 mb)
SE 11.5 mph
(SE 19 kph)
- 3SM
11:53
Overcast
Fog And Mist
N/A N/A N/A 29.92 in
(1013 mb)
SE 10.4 mph
(SE 17 kph)
- 2SM
11:15
Overcast
Fog And Mist
N/A N/A N/A 29.95 in
(1014 mb)
SE 10.4 mph
(SE 17 kph)
- 2SM
11:03
Overcast
Fog And Mist
N/A N/A N/A 29.95 in
(1014 mb)
SE 12.7 mph
(SE 20 kph)
- 1 3/4SM
10:53
Overcast
Fog And Mist
N/A N/A N/A 29.98 in
(1015 mb)
SE 12.7 mph
(SE 20 kph)
- 2SM
10:42
Overcast
Fog And Mist
N/A N/A N/A 29.98 in
(1015 mb)
SE 11.5 mph
(SE 19 kph)
- 2SM
10:19
Overcast
Fog And Mist
N/A N/A N/A 29.98 in
(1015 mb)
SE 11.5 mph
(SE 19 kph)
- 2SM
09:53
Overcast
Fog And Mist
N/A N/A N/A 30.01 in
(1016 mb)
SSE 12.7 mph
(SSE 20 kph)
- 2 1/2SM
09:32
Overcast
Fog And Mist
N/A N/A N/A 29.98 in
(1015 mb)
SSE 12.7 mph
(SSE 20 kph)
- 2SM
08:53
Overcast
Hazy
75°F / 24°C 61°F / 16°C 61% 30.01 in
(1016 mb)
SE 10.4 mph
(SE 17 kph)
0.00 in
(0.00 mm)
1 3/4SM
08:41
Overcast
Hazy
75°F / 24°C 61°F / 16°C 61% 30.01 in
(1016 mb)
SSE 8.1 mph
(SSE 13 kph)
0.00 in
(0.00 mm)
1 3/4SM
08:32
Overcast
Hazy
75°F / 24°C 61°F / 16°C 61% 30.01 in
(1016 mb)
SE 10.4 mph
(SE 17 kph)
0.00 in
(0.00 mm)
2SM
08:16
Overcast
Hazy
75°F / 24°C 61°F / 16°C 61% 30.01 in
(1016 mb)
SE 9.2 mph
(SE 15 kph)
0.00 in
(0.00 mm)
1 3/4SM
08:12
Overcast
Hazy
75°F / 24°C 61°F / 16°C 61% 30.01 in
(1016 mb)
SE 10.4 mph
(SE 17 kph)
0.00 in
(0.00 mm)
2SM
07:53
Overcast
Light Rain
75°F / 24°C 61°F / 16°C 61% 29.98 in
(1015 mb)
SE 11.5 mph
(SE 19 kph)
0.00 in
(0.00 mm)
2 1/2SM
07:45
Overcast
Hazy
75°F / 24°C 61°F / 16°C 61% 29.98 in
(1015 mb)
SE 10.4 mph
(SE 17 kph)
0.00 in
(0.00 mm)
2 1/2SM
07:31
Overcast
Hazy
77°F / 25°C 61°F / 16°C 57% 29.98 in
(1015 mb)
SE 11.5 mph
(SE 19 kph)
0.00 in
(0.00 mm)
4SM
07:20
Overcast
Hazy
75°F / 24°C 63°F / 17°C 65% 30.01 in
(1016 mb)
SE 5.8 mph
(SE 9 kph)
0.00 in
(0.00 mm)
3SM
07:13
Overcast
Thunder Storms
77°F / 25°C 63°F / 17°C 61% 30.01 in
(1016 mb)
SE 6.9 mph
(SE 11 kph)
0.00 in
(0.00 mm)
2 1/2SM
07:07
Overcast
Thunder Storms
77°F / 25°C 63°F / 17°C 61% 30.01 in
(1016 mb)
SE 9.2 mph
(SE 15 kph)
0.00 in
(0.00 mm)
3SM
06:59
Overcast
Thunder Storms
75°F / 24°C 63°F / 17°C 65% 30.01 in
(1016 mb)
ESE 8.1 mph
(ESE 13 kph)
0.00 in
(0.00 mm)
2SM
06:53
Overcast
Thunder Storms
70°F / 21°C 63°F / 17°C 78% 30.01 in
(1016 mb)
SE 5.8 mph
(SE 9 kph)
0.16 in
(4.06 mm)
1/2SM
06:42
Overcast
Thunder Storms
68°F / 20°C 63°F / 17°C 83% 30.01 in
(1016 mb)
Variable 3.5 mph
(Variable 6 kph)
0.04 in
(1.02 mm)
1 3/4SM
06:31
Overcast
Thunder Storms
75°F / 24°C 63°F / 17°C 65% 30.01 in
(1016 mb)
SE 8.1 mph
(SE 13 kph)
- 3SM
05:53
Overcast
Hazy
75°F / 24°C 63°F / 17°C 65% 30.01 in
(1016 mb)
SSE 9.2 mph
(SSE 15 kph)
- 3SM
05:36
Overcast
Hazy
75°F / 24°C 63°F / 17°C 65% 29.98 in
(1015 mb)
SE 10.4 mph
(SE 17 kph)
- 2 1/2SM
04:53
Overcast
Fog And Mist
64°F / 18°C 63°F / 17°C 94% 29.98 in
(1015 mb)
SE 10.4 mph
(SE 17 kph)
0.01 in
(0.25 mm)
3SM
04:21
Overcast
Fog And Mist
63°F / 17°C 63°F / 17°C 100% 30.01 in
(1016 mb)
SE 10.4 mph
(SE 17 kph)
0.01 in
(0.25 mm)
3SM
04:01
Overcast
Light Rain
63°F / 17°C 63°F / 17°C 100% 30.01 in
(1016 mb)
SE 10.4 mph
(SE 17 kph)
0.01 in
(0.25 mm)
2SM
03:53
Overcast
Light Rain
63°F / 17°C 63°F / 17°C 100% 30.01 in
(1016 mb)
SE 8.1 mph
(SE 13 kph)
0.00 in
(0.00 mm)
1 3/4SM
02:53
Overcast
Fog And Mist
64°F / 18°C 63°F / 17°C 94% 30.01 in
(1016 mb)
SE 11.5 mph
(SE 19 kph)
0.00 in
(0.00 mm)
4SM
02:29
Overcast
Light Rain
64°F / 18°C 63°F / 17°C 94% 30.01 in
(1016 mb)
SE 11.5 mph
(SE 19 kph)
0.00 in
(0.00 mm)
4SM
01:53
Overcast
Light Rain
64°F / 18°C 63°F / 17°C 94% 30.04 in
(1017 mb)
SSE 11.5 mph
(SSE 19 kph)
0.12 in
(3.05 mm)
5SM
01:33
Overcast
64°F / 18°C 63°F / 17°C 94% 30.04 in
(1017 mb)
SE 11.5 mph
(SE 19 kph)
0.12 in
(3.05 mm)
7SM
01:25
Overcast
64°F / 18°C 63°F / 17°C 94% 30.04 in
(1017 mb)
SSE 13.8 mph
(SSE 22 kph)
0.12 in
(3.05 mm)
10SM
01:21
Overcast
Thunder Storms
64°F / 18°C 61°F / 16°C 88% 30.04 in
(1017 mb)
SSE 8.1 mph
(SSE 13 kph)
0.12 in
(3.05 mm)
9SM
01:18
Overcast
Thunder Storms
64°F / 18°C 61°F / 16°C 88% 30.04 in
(1017 mb)
SSE 9.2 mph
(SSE 15 kph)
0.11 in
(2.79 mm)
3SM
01:09
Overcast
Thunder Storms
63°F / 17°C 61°F / 16°C 94% 30.04 in
(1017 mb)
SSE 8.1 mph
(SSE 13 kph)
0.11 in
(2.79 mm)
1 3/4SM
01:02
Overcast
Thunder Storms
63°F / 17°C 59°F / 15°C 88% 30.04 in
(1017 mb)
SE 6.9 mph
(SE 11 kph)
0.01 in
(0.25 mm)
8SM
00:53
Overcast
Thunder Storms
61°F / 16°C 57°F / 14°C 88% 30.04 in
(1017 mb)
SW 9.2 mph
(SW 15 kph)
0.60 in
(15.24 mm)
2SM
00:50
Overcast
Thunder Storms
61°F / 16°C 55°F / 13°C 83% 30.04 in
(1017 mb)
SW 5.8 mph
(SW 9 kph)
0.60 in
(15.24 mm)
1 3/4SM
00:46
Overcast
Thunder Storms
63°F / 17°C 57°F / 14°C 83% 30.04 in
(1017 mb)
SSW 11.5 mph
(SSW 19 kph)
0.59 in
(14.99 mm)
2SM
00:41
Overcast
Thunder Storms
63°F / 17°C 57°F / 14°C 83% 30.04 in
(1017 mb)
Variable 3.5 mph
(Variable 6 kph)
0.55 in
(13.97 mm)
1/2SM
00:34
Overcast
Thunder Storms
61°F / 16°C 57°F / 14°C 88% 30.06 in
(1018 mb)
SSW 19.6 mph
(SSW 32 kph)
0.52 in
(13.21 mm)
1/2SM
00:22
Overcast
Thunder Storms
64°F / 18°C 63°F / 17°C 94% 30.04 in
(1017 mb)
SSE 15 mph
(SSE 24 kph)
0.12 in
(3.05 mm)
1 1/2SM
00:04
Overcast
Thunder Storms
64°F / 18°C 63°F / 17°C 94% 30.04 in
(1017 mb)
SE 9.2 mph
(SE 15 kph)
0.02 in
(0.51 mm)
3SM
Time Weather Temperature Dewpoint Humidity Pressure Winds Precip Visibility


Weather for websites

WeatherForYou.com, LLC is not responsible for any damages or problems caused by this service. Current weather conditions are obtained from the closest station including government and personal stations which may have varying degrees of accuracy. Weather forecasts are derived from the NOAA NDFD. Like all things, this site belongs to Jesus Christ... He just trusts me to maintain it. If you have any questions or comments email webmaster@weatherforyou.com

Copyright © 2014, WeatherForYou.com LLC. All rights reserved.